Location: Delettes
(50.6178°N, 2.2123°E)
Time: 21:50:36
(UTC+00:00)

Meteor 1-19 Rocket - Pass Details

Date: 27 February 2020
Orbit: 813 x 921 km, 81.2° (Epoch: 05 April)

Event Time Altitude Azimuth Distance (km) Brightness Sun altitude
Rises 19:00:08 0° 347° (NNW) 3,515 7.7 -15.3°
Reaches altitude 10° 19:02:37 10° 347° (NNW) 2,556 6.9 -15.7°
Maximum altitude 19:08:27 87° 261° (W) 873 4.3 -16.6°
Drops below altitude 10° 19:14:03 10° 171° (S) 2,464 6.4 -17.5°
Sets 19:16:25 0° 171° (S) 3,380 7.2 -17.9°
